Location: ????????
(55.6189°N, 38.3031°E)
Time: 21:33:34
(UTC+00:00)

Meteor 2-3 Rocket - Pass Details

Date: 15 November 2019
Orbit: 843 x 884 km, 81.2° (Epoch: 15 December)

Event Time Altitude Azimuth Distance (km) Brightness Sun altitude
Rises 03:38:15 0° 180° (S) 3,453 7.1 -11.4°
Reaches altitude 10° 03:40:41 10° 177° (S) 2,525 6.4 -11.1°
Maximum altitude 03:46:20 62° 98° (E) 988 4.4 -10.3°
Drops below altitude 10° 03:52:05 10° 19° (NNE) 2,559 6.2 -9.5°
Sets 03:54:34 0° 16° (NNE) 3,503 6.9 -9.2°
